SL-8 DEB, 22132

Orbit data source: Space-Track

SL-8 DEB, 22132 is space debris in LEO originally from a launch on Tue, 12 Feb 1991 UTC launched from the Plesetsk Missile And Space Complex (PKMTR). Debris objects in space refer to the collection of defunct objects orbiting the Earth. Examples of debris include non-operational satellites, rocket bodies, and fragments generated from explosions, collisions, or faulty payload assembly.

Loading next visibility...
Identifier
22132, 1991-009CR
Orbit
LEO
Country
Flag of CISCIS
Related business
Manufacturer
Unknown
Mission
Spacecraft
Bus & Motor
Unknown
Mass
Unknown
Launch date (UTC)
1991-02-12 (35 years ago)
Launch vehicle
Unknown
Launch site
Plesetsk Missile And Space Complex (PKMTR)
Object type
Payload
Rocket body
Debris
Shape & HBR
Unknown shape, 0.1 m
Radar Cross Section
Medium (>0.1 m² and <1 m²)

Expand to show TLE details & history
Last TLE update: 2 days ago

TLE from 2 days ago
0 SL-8 DEB
1 22132U 91009CR  26171.41547824 -.00000111  00000-0 -94736-3 0  9998
2 22132  74.0576 301.3080 0142201  17.8708  40.5453 12.16954334567532
Epoch: 2026-06-20T09:58Z
TLE epoch observation values (Epoch: 2026-06-20T09:58:17.319Z)
Latitude
56.03324°
Longitude
-91.93598°
Altitude
1,529.179 km
Speed
7.144 km/s
True Right ascension
21h 45m 03s
True Declination
55° 53' 21"
Sunlit
Object was in daylight at epoch
Visualization orbit readout
Latitude
Unknown
Longitude
Unknown
Altitude
Unknown
Speed
Unknown
Apparent Right ascension
Unknown
Apparent Declination
Unknown
Sunlit
N/A
Visualization observer readout
Local Sidereal Time
03:48:12
Azimuth
Unknown
Elevation
Unknown
Doppler factor
Unknown
Orbital elements
Apogee altitude
1,717.208 km
Perigee altitude
1,490.203 km
Semi-major axis
7,981.842 km
Eccentricity
0.01422
Inclination
74.0576°
RAAN
301.308°
Arg. of periapsis
17.8708°
True anomaly
41.61899°
Mean anomaly
40.5453°
Eccentric anomaly
41.08069°
Mean motion
3.04361 °/min
Orbital period
118.28 mins
BSTAR
-0.00094736
Loading maneuver chart data...
Computing Atmospheric mass density...
Loading historical data...
Loading historical data...
Loading historical data...
Loading historical data...
Loading historical data...
Loading historical data...
Loading historical data...

Documentation

Showing up to 5 results
|